period_start,C,m1,H,J0,J1,J2,J3,J4,J5,JA,JB,JC,JD,JJ,JK,JN,#
2018-05-13 00:03:07,0.01,0.82,0.00,23.14,26.37,29.31,14.00,47.92,1013.02,2029.97,3135.03,2869.00,3273.03,600.28,593.95,32.99,0000 0000 0000 0000 000000
2018-05-13 00:08:08,0.02,0.82,0.00,23.17,26.37,29.33,13.80,47.71,1012.76,2029.97,3134.88,2868.59,3272.87,600.06,593.55,33.04,0000 0000 0000 0000 000000
2018-05-13 00:13:10,0.03,0.82,0.00,23.19,26.38,29.34,13.82,47.77,1012.73,2029.96,3134.07,2868.01,3272.09,599.73,593.10,33.09,0000 0000 0000 0000 000000
2018-05-13 00:18:11,0.00,0.82,0.00,23.21,26.40,29.33,13.93,47.77,1012.73,2029.94,3133.90,2867.97,3271.98,599.92,593.22,33.14,0000 0000 0000 0000 000000
2018-05-13 00:23:12,0.05,0.82,0.00,23.24,26.40,29.31,13.91,47.90,1012.72,2029.87,3133.11,2867.31,3271.36,600.21,593.44,33.19,0000 0000 0000 0000 000000
2018-05-13 00:28:14,0.01,0.82,0.00,23.27,26.40,29.31,13.85,47.88,1012.72,2029.87,3132.78,2866.99,3270.97,599.77,592.93,33.24,0000 0000 0000 0000 000000
2018-05-13 00:33:15,0.03,0.82,0.00,23.28,26.42,29.36,13.87,47.80,1012.72,2029.65,3132.04,2866.50,3270.28,599.85,593.11,33.29,0000 0000 0000 0000 000000
2018-05-13 00:38:16,-0.01,0.82,0.00,23.31,26.42,29.37,13.83,47.82,1012.71,2029.48,3131.63,2866.01,3269.98,599.82,592.84,33.35,0000 0000 0000 0000 000000
2018-05-13 00:43:18,-0.00,0.82,0.00,23.32,26.44,29.35,13.89,47.81,1012.71,2029.21,3130.98,2865.84,3269.41,599.89,593.07,33.40,0000 0000 0000 0000 000000
2018-05-13 00:48:19,0.04,0.82,0.00,23.35,26.45,29.35,13.94,47.73,1012.72,2029.14,3130.29,2865.11,3269.00,600.41,593.46,33.45,0000 0000 0000 0000 000000
2018-05-13 00:53:20,0.01,0.82,0.00,23.37,26.46,29.37,13.89,47.74,1012.71,2029.07,3129.84,2864.98,3268.43,600.16,593.04,33.50,0000 0000 0000 0000 000000
2018-05-13 00:58:22,0.03,0.83,0.00,23.40,26.47,29.39,13.84,47.72,1012.71,2029.08,3129.06,2864.52,3268.01,600.06,592.97,33.55,0000 0000 0000 0000 000000
2018-05-13 01:03:23,0.02,0.83,0.00,23.42,26.49,29.39,13.93,47.63,1012.71,2029.03,3128.76,2864.01,3267.54,600.07,592.94,33.60,0000 0000 0000 0000 000000
2018-05-13 01:08:24,0.01,0.83,0.00,23.43,26.50,29.41,13.88,47.74,1012.71,2029.01,3128.04,2863.96,3267.01,599.91,592.69,33.65,0000 0000 0000 0000 000000
2018-05-13 01:13:26,0.04,0.83,0.00,23.47,26.52,29.42,13.85,47.63,1012.70,2029.01,3127.60,2863.25,3266.65,600.01,592.70,33.70,0000 0000 0000 0000 000000
2018-05-13 01:18:27,0.01,0.83,0.00,23.52,26.53,29.45,13.87,47.68,1012.70,2029.00,3127.00,2863.00,3266.02,599.85,592.43,33.75,0000 0000 0000 0000 000000
2018-05-13 01:23:28,0.05,0.83,0.00,23.55,26.55,29.47,13.77,47.68,1012.62,2029.01,3126.28,2862.43,3265.53,599.84,592.44,33.80,0000 0000 0000 0000 000000
2018-05-13 01:28:29,0.02,0.84,0.00,23.57,26.57,29.50,13.79,47.68,1012.56,2029.00,3125.60,2862.00,3265.00,599.72,592.30,33.85,0000 0000 0000 0000 000000
2018-05-13 01:33:30,0.04,0.84,0.00,23.59,26.57,29.51,13.83,47.73,1012.51,2029.00,3124.85,2861.33,3264.29,600.15,592.56,33.90,0000 0000 0000 0000 000000
2018-05-13 01:38:32,0.02,0.84,0.00,23.62,26.60,29.49,13.94,47.66,1012.37,2028.99,3124.04,2860.99,3263.92,599.96,592.13,33.95,0000 0000 0000 0000 000000
2018-05-13 01:43:33,0.05,0.84,0.00,23.65,26.62,29.52,13.81,47.58,1012.25,2028.97,3123.27,2860.25,3263.09,599.99,592.21,34.00,0000 0000 0000 0000 000000
2018-05-13 01:48:35,0.00,0.84,0.00,23.69,26.64,29.54,13.83,47.74,1012.23,2028.96,3122.81,2859.99,3262.91,599.70,591.87,34.05,0000 0000 0000 0000 000000
2018-05-13 01:53:36,0.01,0.84,0.00,23.72,26.66,29.57,13.85,47.73,1012.25,2028.72,3122.08,2859.47,3262.11,599.84,591.87,34.10,0000 0000 0000 0000 000000
2018-05-13 01:58:37,-0.01,0.84,0.00,23.75,26.68,29.60,13.81,47.64,1012.26,2028.34,3121.75,2859.01,3261.96,599.79,591.75,34.15,0000 0000 0000 0000 000000
2018-05-13 02:03:38,0.00,0.84,0.00,23.79,26.70,29.59,13.76,47.64,1012.25,2028.09,3121.05,2858.84,3261.22,599.62,591.62,34.20,0000 0000 0000 0000 000000
2018-05-13 02:08:39,0.03,0.84,0.00,23.83,26.72,29.63,13.81,47.73,1012.25,2028.04,3120.39,2858.11,3260.96,599.84,591.63,34.26,0000 0000 0000 0000 000000
2018-05-13 02:13:40,0.01,0.85,0.00,23.85,26.74,29.64,13.86,47.74,1012.24,2028.02,3119.98,2857.96,3260.24,600.22,591.93,34.31,0000 0000 0000 0000 000000
2018-05-13 02:18:41,0.03,0.85,0.00,23.87,26.76,29.65,13.79,47.76,1012.24,2028.00,3119.33,2857.33,3259.99,599.97,591.61,34.36,0000 0000 0000 0000 000000
2018-05-13 02:23:42,0.02,0.85,0.00,23.91,26.79,29.68,13.80,47.70,1012.28,2028.00,3118.97,2857.01,3259.32,600.24,591.85,34.41,0000 0000 0000 0000 000000
2018-05-13 02:28:43,0.02,0.85,0.00,23.92,26.81,29.70,13.74,47.65,1012.27,2027.99,3118.19,2856.81,3259.00,600.10,591.63,34.46,0000 0000 0000 0000 000000
2018-05-13 02:33:45,0.03,0.85,0.00,23.94,26.83,29.74,13.85,47.77,1012.25,2027.99,3117.78,2856.11,3258.48,599.96,591.60,34.51,0000 0000 0000 0000 000000
2018-05-13 02:38:46,0.01,0.85,0.00,23.96,26.86,29.78,13.77,47.77,1012.24,2027.98,3117.04,2855.99,3258.00,599.72,591.34,34.56,0000 0000 0000 0000 000000
2018-05-13 02:43:47,0.04,0.85,0.00,23.99,26.88,29.79,13.82,47.67,1012.24,2027.94,3116.59,2855.40,3257.38,600.11,591.69,34.61,0000 0000 0000 0000 000000
2018-05-13 02:48:49,-0.03,0.86,0.00,24.01,26.90,29.82,13.82,47.89,1012.23,2027.63,3116.01,2855.00,3256.99,599.92,591.37,34.66,0000 0000 0000 0000 000000
2018-05-13 02:53:50,0.01,0.85,0.00,24.04,26.93,29.84,13.84,47.75,1012.24,2027.32,3115.77,2854.81,3256.59,599.98,591.38,34.71,0000 0000 0000 0000 000000
2018-05-13 02:58:51,0.01,0.85,0.00,24.07,26.95,29.87,13.83,47.68,1012.23,2027.10,3115.04,2854.06,3256.01,599.93,591.20,34.76,0000 0000 0000 0000 000000
2018-05-13 03:03:52,0.00,0.86,0.00,24.10,26.98,29.89,13.77,47.68,1012.22,2027.04,3114.72,2853.99,3255.83,599.86,591.18,34.81,0000 0000 0000 0000 000000
2018-05-13 03:08:53,0.04,0.86,0.00,24.13,27.00,29.90,13.76,47.60,1012.23,2027.01,3114.02,2853.40,3255.05,599.90,591.12,34.86,0000 0000 0000 0000 000000
2018-05-13 03:13:55,0.02,0.86,0.00,24.16,27.03,29.94,13.94,47.73,1012.23,2027.00,3113.53,2853.01,3254.78,599.96,591.12,34.91,0000 0000 0000 0000 000000
2018-05-13 03:18:56,0.02,0.86,0.00,24.20,27.06,29.96,13.73,47.59,1012.22,2027.00,3113.01,2852.78,3254.06,599.85,590.90,34.96,0000 0000 0000 0000 000000
2018-05-13 03:23:57,0.03,0.86,0.00,24.23,27.08,29.99,13.80,47.78,1012.22,2027.00,3112.56,2852.06,3253.84,599.89,590.84,35.01,0000 0000 0000 0000 000000
2018-05-13 03:28:59,0.01,0.86,0.00,24.27,27.11,30.03,13.81,47.70,1012.22,2026.97,3111.99,2851.93,3253.06,599.93,590.86,35.06,0000 0000 0000 0000 000000
2018-05-13 03:34:00,0.04,0.86,0.00,24.31,27.14,30.05,13.81,47.73,1012.22,2026.94,3111.28,2851.14,3252.81,600.20,591.08,35.11,0000 0000 0000 0000 000000
2018-05-13 03:39:01,0.01,0.87,0.00,24.34,27.16,30.07,13.85,47.79,1012.22,2026.88,3110.98,2850.99,3252.09,600.28,590.99,35.17,0000 0000 0000 0000 000000
2018-05-13 03:44:03,-0.00,0.86,0.00,24.38,27.19,30.10,13.87,47.76,1012.22,2026.49,3110.23,2850.58,3251.86,599.95,590.67,35.22,0000 0000 0000 0000 000000
2018-05-13 03:49:04,-0.00,0.86,0.00,24.41,27.22,30.11,13.75,47.77,1012.22,2026.10,3109.86,2850.02,3251.09,599.88,590.46,35.27,0000 0000 0000 0000 000000
2018-05-13 03:54:05,0.03,0.87,0.00,24.46,27.25,30.15,13.76,47.71,1012.22,2026.01,3109.08,2849.72,3250.75,600.05,590.56,35.32,0000 0000 0000 0000 000000
2018-05-13 03:59:06,0.02,0.87,0.00,24.49,27.28,30.18,13.72,47.69,1012.22,2026.00,3108.86,2849.05,3250.04,599.94,590.27,35.37,0000 0000 0000 0000 000000
2018-05-13 04:04:08,0.02,0.87,0.00,24.53,27.31,30.22,13.76,47.61,1012.21,2026.00,3108.07,2848.96,3249.85,599.88,590.27,35.42,0000 0000 0000 0000 000000
2018-05-13 04:09:09,0.04,0.87,0.00,24.58,27.35,30.25,13.74,47.68,1012.21,2025.99,3107.69,2848.30,3249.11,599.87,590.18,35.47,0000 0000 0000 0000 000000
2018-05-13 04:14:10,0.01,0.87,0.00,24.61,27.38,30.29,13.88,47.76,1012.21,2025.97,3107.03,2847.99,3248.80,600.38,590.62,35.52,0000 0000 0000 0000 000000
2018-05-13 04:19:12,0.02,0.87,0.00,24.65,27.41,30.31,13.82,47.61,1012.22,2025.76,3106.42,2847.38,3248.05,599.86,590.03,35.57,0000 0000 0000 0000 000000
2018-05-13 04:24:13,-0.02,0.87,0.00,24.69,27.45,30.35,13.75,47.66,1012.22,2025.35,3105.89,2846.97,3247.56,599.83,589.96,35.62,0000 0000 0000 0000 000000
2018-05-13 04:29:14,0.02,0.87,0.00,24.73,27.48,30.38,13.77,47.65,1012.21,2025.03,3105.08,2846.29,3247.00,600.07,590.15,35.67,0000 0000 0000 0000 000000
2018-05-13 04:34:15,0.01,0.87,0.00,24.76,27.51,30.41,13.79,47.65,1012.21,2025.00,3104.82,2846.00,3246.44,600.00,589.85,35.72,0000 0000 0000 0000 000000
2018-05-13 04:39:17,0.03,0.88,0.00,24.81,27.55,30.44,13.78,47.60,1012.18,2025.00,3104.04,2845.59,3245.95,600.24,590.19,35.77,0000 0000 0000 0000 000000
2018-05-13 04:44:18,0.04,0.88,0.00,24.86,27.59,30.47,13.75,47.65,1012.06,2025.00,3103.29,2845.01,3245.15,599.99,589.63,35.82,0000 0000 0000 0000 000000
2018-05-13 04:49:19,0.02,0.88,0.00,24.88,27.62,30.51,13.78,47.64,1011.84,2024.99,3102.93,2844.53,3244.91,600.12,589.53,35.87,0000 0000 0000 0000 000000
2018-05-13 04:54:20,0.02,0.88,0.00,24.93,27.66,30.55,13.67,47.57,1011.75,2024.91,3102.19,2844.02,3244.11,599.59,588.98,35.92,0000 0000 0000 0000 000000
2018-05-13 04:59:22,-0.01,0.88,0.00,24.97,27.70,30.57,13.67,47.54,1011.76,2024.53,3101.72,2843.65,3243.83,599.86,589.14,35.97,0000 0000 0000 0000 000000
2018-05-13 05:04:23,0.00,0.88,0.00,25.01,27.74,30.61,13.84,47.64,1011.75,2024.16,3101.05,2843.03,3243.07,600.06,589.18,36.03,0000 0000 0000 0000 000000
2018-05-13 05:09:24,0.03,0.88,0.00,25.04,27.77,30.65,13.70,47.58,1011.75,2024.01,3100.40,2842.76,3242.66,600.08,589.12,36.08,0000 0000 0000 0000 000000
2018-05-13 05:14:25,0.02,0.88,0.00,25.09,27.81,30.68,13.80,47.56,1011.75,2024.00,3099.99,2842.06,3242.02,599.99,588.99,36.13,0000 0000 0000 0000 000000
2018-05-13 05:19:26,0.02,0.88,0.00,25.12,27.85,30.72,13.81,47.67,1011.74,2024.00,3099.42,2841.95,3241.66,600.21,589.04,36.18,0000 0000 0000 0000 000000
2018-05-13 05:24:28,0.03,0.89,0.00,25.17,27.89,30.76,13.73,47.56,1011.74,2023.99,3099.00,2841.23,3241.02,600.06,589.01,36.23,0000 0000 0000 0000 000000
2018-05-13 05:29:29,0.02,0.89,0.00,25.21,27.93,30.81,13.72,47.62,1011.74,2023.97,3098.40,2841.00,3240.74,600.01,588.77,36.28,0000 0000 0000 0000 000000
2018-05-13 05:34:30,0.01,0.89,0.00,25.25,27.97,30.84,13.75,47.62,1011.73,2023.75,3097.77,2840.39,3240.03,599.95,588.61,36.33,0000 0000 0000 0000 000000
2018-05-13 05:39:31,-0.02,0.89,0.00,25.30,28.01,30.89,13.81,47.57,1011.73,2023.22,3097.03,2840.00,3239.47,600.28,588.78,36.38,0000 0000 0000 0000 000000
2018-05-13 05:44:32,0.03,0.89,0.00,25.35,28.05,30.93,13.71,47.48,1011.73,2023.02,3096.47,2839.48,3239.00,599.88,588.45,36.43,0000 0000 0000 0000 000000
2018-05-13 05:49:33,0.02,0.89,0.00,25.39,28.09,30.96,13.75,47.52,1011.71,2023.00,3096.01,2839.02,3238.36,600.00,588.43,36.48,0000 0000 0000 0000 000000
2018-05-13 05:54:35,0.01,0.89,0.00,25.41,28.13,31.01,13.77,47.63,1011.70,2023.00,3095.76,2838.86,3237.99,599.94,588.41,36.53,0000 0000 0000 0000 000000
2018-05-13 05:59:36,0.03,0.89,0.00,25.44,28.17,31.04,13.82,47.59,1011.62,2022.91,3095.06,2838.11,3237.32,600.40,588.70,36.58,0000 0000 0000 0000 000000
2018-05-13 06:04:37,-0.03,0.89,0.00,25.48,28.20,31.10,13.71,47.58,1011.49,2022.47,3094.55,2837.92,3236.96,600.27,588.40,36.63,0000 0000 0000 0000 000000
2018-05-13 06:09:39,0.02,0.89,0.00,25.54,28.24,31.12,13.66,47.52,1011.45,2022.12,3093.99,2837.17,3236.27,599.77,587.69,36.68,0000 0000 0000 0000 000000
2018-05-13 06:14:40,0.01,0.89,0.00,25.58,28.28,31.15,13.68,47.53,1011.61,2022.01,3093.46,2837.00,3235.99,600.00,587.98,36.73,0000 0000 0000 0000 000000
2018-05-13 06:19:41,0.04,0.89,0.00,25.60,28.32,31.20,13.72,47.58,1011.65,2022.00,3092.98,2836.50,3235.37,600.00,587.97,36.78,0000 0000 0000 0000 000000
2018-05-13 06:24:42,0.02,0.89,0.00,25.61,28.36,31.24,13.71,47.52,1011.50,2022.00,3092.44,2836.01,3235.00,599.80,587.71,36.83,0000 0000 0000 0000 000000
2018-05-13 06:29:44,0.01,0.90,0.00,25.63,28.39,31.28,13.74,47.57,1011.45,2021.97,3092.00,2835.97,3234.45,600.19,587.94,36.88,0000 0000 0000 0000 000000
2018-05-13 06:34:45,0.02,0.90,0.00,25.66,28.43,31.31,13.67,47.41,1011.44,2021.81,3091.60,2835.29,3234.00,599.91,587.72,36.93,0000 0000 0000 0000 000000
2018-05-13 06:39:46,-0.01,0.90,0.00,25.68,28.46,31.35,13.63,47.47,1011.49,2021.44,3091.01,2835.00,3233.75,599.71,587.43,36.99,0000 0000 0000 0000 000000
2018-05-13 06:44:48,-0.00,0.90,0.00,25.71,28.50,31.37,13.76,47.43,1011.38,2021.10,3090.63,2834.74,3233.06,600.21,587.92,37.04,0000 0000 0000 0000 000000
2018-05-13 06:49:49,0.02,0.90,0.00,25.74,28.54,31.42,13.71,47.52,1011.42,2021.00,3090.02,2834.06,3232.77,600.00,587.65,37.09,0000 0000 0000 0000 000000
2018-05-13 06:54:50,0.02,0.90,0.00,25.75,28.57,31.45,13.65,47.39,1011.58,2021.00,3089.53,2833.92,3232.06,599.85,587.52,37.14,0000 0000 0000 0000 000000
2018-05-13 06:59:51,0.03,0.90,0.00,25.78,28.61,31.49,13.72,47.38,1011.61,2020.99,3088.98,2833.24,3231.67,599.98,587.55,37.19,0000 0000 0000 0000 000000
2018-05-13 07:04:53,0.02,0.90,0.00,25.83,28.64,31.53,13.75,47.38,1011.61,2020.94,3088.23,2833.00,3231.03,600.45,587.91,37.24,0000 0000 0000 0000 000000
2018-05-13 07:09:54,0.02,0.90,0.00,25.87,28.68,31.57,13.70,47.41,1011.61,2020.77,3087.95,2832.44,3230.66,599.88,587.29,37.29,0000 0000 0000 0000 000000
2018-05-13 07:14:55,-0.03,0.90,0.00,25.88,28.71,31.59,13.73,47.42,1011.53,2020.30,3087.43,2832.01,3230.04,600.29,587.63,37.34,0000 0000 0000 0000 000000
2018-05-13 07:19:56,0.01,0.90,0.00,25.84,28.74,31.62,13.67,47.38,1011.61,2020.03,3086.96,2831.71,3229.53,600.03,587.56,37.39,0000 0000 0000 0000 000000
2018-05-13 07:24:58,0.03,0.90,0.00,25.74,28.77,31.67,13.70,47.42,1011.65,2020.00,3086.22,2831.07,3229.01,600.27,588.03,37.44,0000 0000 0000 0000 000000
2018-05-13 07:29:59,0.01,0.90,0.00,25.70,28.80,31.71,13.79,47.46,1011.58,2020.00,3085.95,2830.97,3228.56,600.34,588.21,37.49,0000 0000 0000 0000 000000
2018-05-13 07:35:00,0.04,0.91,0.00,25.68,28.83,31.72,13.68,47.42,1011.60,2020.00,3085.28,2830.45,3228.05,599.95,587.72,37.54,0000 0000 0000 0000 000000
2018-05-13 07:40:01,0.01,0.91,0.00,25.66,28.85,31.74,13.75,47.56,1011.68,2019.99,3084.90,2830.01,3227.91,599.65,587.56,37.59,0000 0000 0000 0000 000000
2018-05-13 07:45:02,0.03,0.91,0.00,25.67,28.87,31.76,13.66,47.42,1011.72,2019.97,3084.13,2829.95,3227.21,599.74,587.64,37.64,0000 0000 0000 0000 000000
2018-05-13 07:50:04,0.02,0.91,0.00,25.65,28.89,31.77,13.61,47.41,1011.73,2019.97,3083.94,2829.31,3226.99,599.72,587.64,37.69,0000 0000 0000 0000 000000
2018-05-13 07:55:05,0.02,0.91,0.00,25.65,28.91,31.80,13.76,47.42,1011.73,2019.93,3083.15,2829.01,3226.56,600.14,588.06,37.74,0000 0000 0000 0000 000000
2018-05-13 08:00:07,0.02,0.91,0.00,25.66,28.92,31.81,13.66,47.39,1011.73,2019.77,3082.67,2828.56,3226.00,599.42,587.29,37.79,0000 0000 0000 0000 000000
2018-05-13 08:05:08,0.01,0.91,0.00,25.65,28.95,31.83,13.68,47.46,1011.73,2019.65,3082.06,2828.05,3225.65,600.16,588.00,37.84,0000 0000 0000 0000 000000
2018-05-13 08:10:09,-0.02,0.91,0.00,25.66,28.96,31.82,13.73,47.46,1011.73,2019.33,3081.99,2828.00,3225.04,600.24,588.06,37.89,0000 0000 0000 0000 000000
2018-05-13 08:15:10,0.01,0.91,0.00,25.66,28.97,31.83,13.76,47.48,1011.73,2019.22,3081.51,2827.87,3224.98,599.91,587.82,37.95,0000 0000 0000 0000 000000
2018-05-13 08:20:11,0.02,0.91,0.00,25.67,28.99,31.85,13.71,47.39,1011.73,2019.09,3081.00,2827.14,3224.39,599.46,587.40,38.00,0000 0000 0000 0000 000000
2018-05-13 08:25:13,0.01,0.91,0.00,25.67,29.00,31.87,13.78,47.42,1011.73,2019.06,3080.39,2827.00,3224.01,600.29,588.07,38.05,0000 0000 0000 0000 000000
2018-05-13 08:30:14,0.01,0.91,0.00,25.67,29.02,31.87,13.79,47.52,1011.73,2019.01,3079.99,2826.78,3223.72,600.11,587.94,38.10,0000 0000 0000 0000 000000
2018-05-13 08:35:16,0.04,0.92,0.00,25.69,29.02,31.89,13.79,47.43,1011.73,2019.01,3079.32,2826.09,3223.06,600.12,587.93,38.15,0000 0000 0000 0000 000000
2018-05-13 08:40:17,0.00,0.92,0.00,25.72,29.05,31.90,13.70,47.42,1011.73,2019.01,3078.98,2825.99,3222.95,599.58,587.23,38.20,0000 0000 0000 0000 000000
2018-05-13 08:45:18,0.03,0.92,0.00,25.70,29.05,31.92,13.72,47.38,1011.73,2019.00,3078.36,2825.82,3222.26,599.97,587.81,38.25,0000 0000 0000 0000 000000
2018-05-13 08:50:19,0.02,0.92,0.00,25.66,29.06,31.92,13.75,47.49,1011.73,2019.00,3078.00,2825.20,3222.01,600.17,588.04,38.30,0000 0000 0000 0000 000000
2018-05-13 08:55:20,0.01,0.92,0.00,25.68,29.07,31.94,13.79,47.42,1011.73,2019.00,3077.75,2825.01,3221.93,599.92,587.93,38.35,0000 0000 0000 0000 000000
2018-05-13 09:00:21,0.02,0.92,0.00,25.67,29.07,31.95,13.77,47.43,1011.73,2019.00,3077.06,2824.99,3221.24,599.85,587.64,38.40,0000 0000 0000 0000 000000
2018-05-13 09:05:23,0.02,0.92,0.00,25.65,29.08,31.96,13.76,47.39,1011.72,2019.00,3076.84,2824.65,3221.00,599.96,587.87,38.45,0000 0000 0000 0000 000000
2018-05-13 09:10:24,0.03,0.92,0.00,25.65,29.10,31.97,13.68,47.47,1011.72,2019.00,3076.08,2824.05,3220.66,599.49,587.36,38.50,0000 0000 0000 0000 000000
2018-05-13 09:15:25,0.01,0.93,0.00,25.64,29.10,31.98,13.71,47.42,1011.73,2018.99,3075.69,2823.99,3220.02,599.74,587.70,38.55,0000 0000 0000 0000 000000
2018-05-13 09:20:26,0.02,0.93,0.00,25.65,29.10,31.97,13.69,47.43,1011.72,2018.99,3075.04,2823.59,3219.98,599.72,587.56,38.60,0000 0000 0000 0000 000000
2018-05-13 09:25:27,0.02,0.93,0.00,25.65,29.12,32.01,13.69,47.44,1011.72,2018.98,3074.95,2823.03,3219.36,599.99,587.84,38.65,0000 0000 0000 0000 000000
2018-05-13 09:30:28,0.01,0.93,0.00,25.63,29.12,32.03,13.76,47.48,1011.73,2018.96,3074.19,2822.98,3219.01,600.20,588.03,38.70,0000 0000 0000 0000 000000
2018-05-13 09:35:30,0.02,0.93,0.00,25.60,29.12,32.02,13.67,47.32,1011.73,2018.89,3073.89,2822.56,3218.64,599.54,587.52,38.75,0000 0000 0000 0000 000000
2018-05-13 09:40:31,0.02,0.93,0.00,25.62,29.12,32.03,13.77,47.52,1011.73,2018.86,3073.16,2822.03,3218.03,599.93,587.91,38.80,0000 0000 0000 0000 000000
2018-05-13 09:45:32,-0.01,0.93,0.00,25.65,29.14,32.03,13.76,47.35,1011.73,2018.72,3072.93,2821.97,3217.93,599.92,587.97,38.86,0000 0000 0000 0000 000000
2018-05-13 09:50:34,0.04,0.93,0.00,25.73,29.15,32.03,13.72,47.41,1011.73,2018.56,3072.14,2821.40,3217.14,600.01,587.75,38.91,0000 0000 0000 0000 000000
2018-05-13 09:55:35,0.02,0.93,0.00,25.80,29.15,32.06,13.72,47.48,1011.73,2018.68,3071.96,2821.02,3216.99,600.05,587.65,38.96,0000 0000 0000 0000 000000
2018-05-13 10:00:36,0.01,0.93,0.00,25.76,29.17,32.05,13.72,47.38,1011.73,2018.56,3071.22,2820.97,3216.62,600.05,587.83,39.01,0000 0000 0000 0000 000000
2018-05-13 10:05:37,-0.00,0.94,0.00,25.80,29.17,32.06,13.72,47.50,1011.73,2018.25,3070.98,2820.36,3216.02,599.80,587.36,39.06,0000 0000 0000 0000 000000
2018-05-13 10:10:39,0.02,0.94,0.00,25.82,29.19,32.09,13.73,47.39,1011.74,2018.10,3070.33,2820.00,3215.80,599.92,587.48,39.11,0000 0000 0000 0000 000000
2018-05-13 10:15:41,0.01,0.94,0.00,25.79,29.20,32.07,13.76,47.30,1011.74,2018.05,3070.01,2819.97,3215.08,600.89,588.46,39.16,0000 0000 0000 0000 000000
2018-05-13 10:20:42,0.03,0.94,0.00,25.82,29.20,32.07,13.77,47.49,1011.74,2018.01,3069.65,2819.33,3214.98,599.75,587.36,39.21,0000 0000 0000 0000 000000
2018-05-13 10:25:43,0.02,0.94,0.00,25.84,29.21,32.06,13.74,47.49,1011.75,2018.01,3069.04,2819.01,3214.34,599.75,587.24,39.26,0000 0000 0000 0000 000000
2018-05-13 10:30:44,0.00,0.94,0.00,25.80,29.22,32.06,13.71,47.38,1011.74,2018.00,3068.86,2818.98,3214.00,599.89,587.30,39.31,0000 0000 0000 0000 000000
2018-05-13 10:35:45,0.03,0.94,0.00,25.84,29.22,32.05,13.77,47.35,1011.74,2018.00,3068.07,2818.44,3213.85,600.52,588.07,39.36,0000 0000 0000 0000 000000
2018-05-13 10:40:46,0.02,0.94,0.00,25.85,29.23,32.08,13.76,47.41,1011.75,2018.00,3067.95,2818.04,3213.18,600.01,587.60,39.41,0000 0000 0000 0000 000000
2018-05-13 10:45:48,0.01,0.94,0.00,25.81,29.24,32.07,13.67,47.37,1011.76,2018.00,3067.18,2817.99,3213.00,599.97,587.67,39.46,0000 0000 0000 0000 000000
2018-05-13 10:50:49,0.00,0.94,0.00,25.82,29.25,32.10,13.72,47.36,1011.75,2018.00,3067.00,2817.91,3212.85,600.14,587.70,39.51,0000 0000 0000 0000 000000
2018-05-13 10:55:50,0.03,0.94,0.00,25.82,29.25,32.09,13.64,47.30,1011.75,2018.00,3066.87,2817.41,3212.22,600.10,587.65,39.56,0000 0000 0000 0000 000000
2018-05-13 11:00:51,0.01,0.95,0.00,25.77,29.25,32.10,13.68,47.47,1011.76,2018.00,3066.18,2817.02,3212.00,599.78,587.47,39.61,0000 0000 0000 0000 000000
2018-05-13 11:05:53,0.00,0.95,0.00,25.76,29.25,32.10,13.71,47.42,1011.76,2018.00,3066.00,2817.00,3211.98,599.83,587.52,39.66,0000 0000 0000 0000 000000
2018-05-13 11:10:54,0.02,0.95,0.00,25.77,29.25,32.09,13.74,47.48,1011.81,2018.00,3065.70,2816.98,3211.38,600.45,588.14,39.71,0000 0000 0000 0000 000000
2018-05-13 11:15:55,0.02,0.95,0.00,25.71,29.25,32.11,13.80,47.48,1011.82,2017.99,3065.07,2816.76,3211.05,600.34,588.14,39.76,0000 0000 0000 0000 000000
2018-05-13 11:20:56,0.02,0.95,0.00,25.72,29.25,32.09,13.76,47.54,1011.79,2017.99,3064.98,2816.15,3210.99,600.15,587.96,39.81,0000 0000 0000 0000 000000
2018-05-13 11:25:58,0.02,0.95,0.00,25.71,29.25,32.09,13.79,47.51,1011.80,2017.99,3064.57,2816.01,3210.74,600.57,588.35,39.87,0000 0000 0000 0000 000000
2018-05-13 11:30:59,0.01,0.95,0.00,25.65,29.25,32.09,13.75,47.52,1011.92,2017.99,3064.03,2816.00,3210.09,599.85,588.05,39.92,0000 0000 0000 0000 000000
2018-05-13 11:36:00,0.00,0.95,0.00,25.64,29.25,32.09,13.73,47.37,1011.94,2017.99,3064.00,2815.99,3210.00,600.33,588.39,39.97,0000 0000 0000 0000 000000
2018-05-13 11:41:02,0.01,0.95,0.00,25.65,29.25,32.09,13.69,47.54,1011.97,2017.99,3063.58,2815.79,3209.97,599.75,587.81,40.02,0000 0000 0000 0000 000000
2018-05-13 11:46:03,0.03,0.95,0.00,25.59,29.23,32.10,13.81,47.52,1011.98,2017.99,3063.02,2815.14,3209.49,599.91,588.13,40.07,0000 0000 0000 0000 000000
2018-05-13 11:51:04,0.01,0.96,0.00,25.59,29.22,32.08,13.72,47.45,1012.03,2017.99,3062.88,2815.02,3209.04,599.91,588.05,40.12,0000 0000 0000 0000 000000
2018-05-13 11:56:06,0.01,0.96,0.00,25.62,29.22,32.07,13.78,47.44,1012.13,2017.99,3062.10,2815.00,3209.00,600.12,588.13,40.17,0000 0000 0000 0000 000000
2018-05-13 12:01:07,0.00,0.96,0.00,25.55,29.22,32.07,13.74,47.45,1012.13,2017.99,3062.00,2814.99,3208.93,600.03,588.54,40.22,0000 0000 0000 0000 000000
2018-05-13 12:06:08,0.02,0.96,0.00,25.51,29.20,32.08,13.72,47.42,1012.13,2018.00,3061.90,2814.85,3208.32,599.69,588.01,40.27,0000 0000 0000 0000 000000
2018-05-13 12:11:10,0.03,0.96,0.00,25.57,29.20,32.05,13.73,47.48,1012.03,2018.00,3061.17,2814.27,3208.01,599.80,588.06,40.32,0000 0000 0000 0000 000000
2018-05-13 12:16:11,0.00,0.96,0.00,25.54,29.20,32.02,13.79,47.45,1011.94,2018.00,3061.00,2814.06,3207.99,599.94,588.28,40.37,0000 0000 0000 0000 000000
2018-05-13 12:21:12,0.00,0.96,0.00,25.49,29.18,32.06,13.69,47.41,1011.89,2018.01,3060.99,2814.01,3207.96,599.88,588.21,40.42,0000 0000 0000 0000 000000
2018-05-13 12:26:14,0.01,0.96,0.00,25.50,29.17,32.04,13.80,47.56,1011.91,2018.02,3060.83,2814.00,3207.57,599.97,588.28,40.47,0000 0000 0000 0000 000000
2018-05-13 12:31:15,0.02,0.96,0.00,25.50,29.16,32.03,13.77,47.50,1012.05,2018.04,3060.09,2813.98,3207.04,600.27,588.65,40.52,0000 0000 0000 0000 000000
2018-05-13 12:36:16,0.01,0.96,0.00,25.45,29.15,32.01,13.72,47.55,1012.06,2018.06,3060.00,2813.72,3206.99,599.67,588.15,40.57,0000 0000 0000 0000 000000
2018-05-13 12:41:17,0.01,0.96,0.00,25.43,29.15,31.99,13.77,47.67,1012.14,2018.06,3059.94,2813.42,3206.94,599.87,588.48,40.62,0000 0000 0000 0000 000000
2018-05-13 12:46:19,0.04,0.96,0.00,25.48,29.12,32.02,13.75,47.52,1012.14,2018.11,3059.20,2813.05,3206.33,599.88,588.30,40.67,0000 0000 0000 0000 000000
2018-05-13 12:51:20,0.01,0.97,0.00,25.42,29.12,32.01,13.76,47.60,1012.17,2018.25,3059.00,2813.00,3206.02,599.96,588.57,40.72,0000 0000 0000 0000 000000
2018-05-13 12:56:21,0.01,0.97,0.00,25.38,29.10,31.98,13.73,47.56,1012.09,2018.27,3058.98,2813.00,3206.00,600.08,588.81,40.78,0000 0000 0000 0000 000000